FW8060 Weather Reports


Display with metric or nautical units.
time (UTC)temp
F
wind
direction
speed
MPH
gust
MPH
rain 1hr
in
rain 24hr
in
rain mn
in
humidity
%
barometer
mb
20260901031617 60 186 1.0 4.0 0.00 0.31 0.00 95 1018.2
20260901030614 60 207 1.0 4.0 0.00 0.31 0.00 95 1018.2
20260901025615 61 230 1.0 4.0 0.00 0.31 0.00 95 1018.2
20260901024611 61 228 2.0 5.0 0.00 0.31 0.00 95 1018.1
20260901023611 61 226 3.0 7.0 0.00 0.31 0.00 95 1018.0
20260901022613 61 169 3.0 9.0 0.00 0.31 0.00 95 1018.2
20260901021615 61 202 2.0 5.0 0.00 0.31 0.00 95 1018.2
20260901020618 61 211 2.0 7.0 0.00 0.31 0.00 95 1018.1
20260901015623 61 233 2.0 6.0 0.00 0.31 0.00 95 1018.0
20260901015506 61 221 3.0 7.0 0.00 0.31 0.00 95 1018.1
20260901013623 61 192 3.0 7.0 0.00 0.31 0.00 94 1018.1
20260901012615 61 269 3.0 7.0 0.00 0.31 0.00 94 1018.1
20260901011613 62 233 3.0 7.0 0.00 0.31 0.00 94 1018.0
20260901010622 62 180 3.0 7.0 0.00 0.31 0.00 94 1018.0
20260901005614 62 236 2.0 6.0 0.00 0.31 0.00 93 1017.8
20260901004612 62 229 3.0 8.0 0.00 0.31 0.00 93 1017.9
20260901003613 62 267 3.0 6.0 0.00 0.31 0.00 93 1017.9
20260901002611 62 254 3.0 8.0 0.00 0.31 0.00 93 1018.0
20260901001619 62 190 3.0 8.0 0.00 0.31 0.00 93 1018.1
20260901000612 62 226 3.0 8.0 0.00 0.31 0.00 93 1018.0
20260831235611 62 201 3.0 8.0 0.00 0.31 0.00 93 1018.0
20260831234613 62 227 2.0 5.0 0.00 0.31 0.00 92 1018.0
20260831233613 62 236 2.0 5.0 0.00 0.31 0.00 92 1018.0
20260831232611 62 254 2.0 6.0 0.00 0.31 0.00 91 1017.9
20260831231625 62 171 2.0 5.0 0.00 0.31 0.00 91 1017.8
20260831230619 63 208 2.0 6.0 0.00 0.31 0.00 90 1017.9
20260831225618 63 157 2.0 6.0 0.00 0.31 0.00 90 1017.9
20260831224619 63 178 3.0 7.0 0.00 0.31 0.00 90 1017.9
20260831224544 63 185 3.0 7.0 0.00 0.31 0.00 90 1017.9
20260831222712 63 217 2.0 7.0 0.00 0.31 0.00 90 1017.9
20260831222617 63 231 4.0 10.0 0.00 0.31 0.00 90 1018.0
20260831220616 63 177 3.0 8.0 0.00 0.31 0.00 90 1017.7
20260831215619 63 171 3.0 7.0 0.00 0.31 0.31 89 1017.7
20260831214619 63 203 3.0 9.0 0.00 0.31 0.31 89 1017.7
20260831213616 63 185 3.0 8.0 0.00 0.31 0.31 88 1017.6
20260831212610 63 271 4.0 10.0 0.00 0.31 0.31 88 1017.5
20260831211611 63 185 4.0 10.0 0.00 0.31 0.31 88 1017.5
20260831211551 64 226 4.0 12.0 0.00 0.31 0.31 88 1017.5
20260831205610 64 236 4.0 10.0 0.00 0.31 0.31 88 1017.5
20260831204610 64 252 5.0 13.0 0.00 0.31 0.31 88 1017.3
20260831203616 63 212 4.0 11.0 0.00 0.31 0.31 88 1017.3
20260831202614 63 192 4.0 10.0 0.00 0.31 0.31 88 1017.4
20260831201612 64 256 4.0 10.0 0.00 0.32 0.31 87 1017.3
20260831200614 64 260 5.0 10.0 0.00 0.33 0.31 87 1017.3
20260831195614 64 226 4.0 9.0 0.00 0.47 0.31 87 1017.2
20260831194605 64 236 4.0 9.0 0.00 0.47 0.31 86 1017.1
20260831193605 64 194 4.0 10.0 0.00 0.47 0.31 86 1017.0
20260831192818 65 250 5.0 12.0 0.00 0.47 0.31 84 1016.4
20260831192609 64 224 4.0 11.0 0.00 0.47 0.31 85 1016.8
20260831191604 65 244 4.0 9.0 0.00 0.47 0.31 84 1016.7
20260831185600 65 246 4.0 9.0 0.00 0.47 0.31 83 1016.3
20260831184601 65 212 5.0 15.0 0.00 0.47 0.31 82 1016.4
20260831183600 66 246 5.0 13.0 0.00 0.47 0.31 81 1016.1
20260831182601 66 268 4.0 14.0 0.00 0.47 0.31 81 1016.0
20260831181601 67 233 6.0 16.0 0.00 0.47 0.31 79 1015.8
20260831180600 67 248 5.0 14.0 0.00 0.47 0.31 79 1015.7
20260831175557 67 262 4.0 12.0 0.00 0.47 0.31 78 1015.5
20260831174952 69 257 7.0 17.0 0.00 0.47 0.31 74 1015.1
20260831174820 69 288 8.0 19.0 0.00 0.47 0.31 74 1015.2
20260831174601 68 250 7.0 15.0 0.00 0.47 0.31 76 1015.5
20260831173601 69 257 7.0 16.0 0.00 0.47 0.31 75 1015.5
20260831170552 69 180 7.0 17.0 0.01 0.47 0.31 72 1015.0
20260831165556 69 275 8.0 19.0 0.01 0.47 0.31 72 1015.0
20260831164556 70 230 7.0 15.0 0.01 0.47 0.31 70 1014.9
20260831163556 69 269 7.0 17.0 0.01 0.47 0.31 72 1014.8
20260831162552 69 262 6.0 15.0 0.01 0.47 0.31 73 1014.7
20260831161553 69 269 4.0 10.0 0.01 0.47 0.31 76 1014.6
20260831161149 72 273 7.0 16.0 0.00 0.46 0.30 62 1014.3
20260831161016 70 249 6.0 13.0 0.00 0.46 0.30 66 1014.5
20260831160625 69 246 5.0 12.0 0.00 0.46 0.30 69 1014.6
20260831154715 72 251 8.0 20.0 0.00 0.46 0.30 63 1014.4
20260831154601 71 307 7.0 16.0 0.00 0.46 0.30 64 1014.5
20260831151550 71 262 7.0 15.0 0.00 0.46 0.30 64 1014.2
20260831150552 71 283 8.0 17.0 0.00 0.46 0.30 65 1014.1
20260831145548 70 283 9.0 17.0 0.00 0.46 0.30 66 1014.2
20260831144704 70 259 8.0 15.0 0.00 0.46 0.30 66 1013.8
20260831144554 70 275 7.0 15.0 0.00 0.46 0.30 67 1014.1
20260831142548 70 294 8.0 15.0 0.00 0.46 0.30 67 1013.5
20260831141553 69 306 8.0 16.0 0.00 0.46 0.30 66 1013.5
20260831140552 70 295 8.0 17.0 0.01 0.46 0.30 65 1013.4
20260831135550 71 309 7.0 17.0 0.01 0.46 0.30 64 1013.1
20260831134545 72 5 7.0 16.0 0.01 0.46 0.30 65 1012.9
20260831134039 71 308 6.0 15.0 0.01 0.46 0.30 68 1012.8
20260831132546 70 224 8.0 16.0 0.01 0.46 0.30 70 1012.7
20260831131545 68 281 8.0 22.0 0.01 0.46 0.30 73 1012.7
20260831130545 67 247 8.0 18.0 0.00 0.46 0.29 78 1012.5
20260831125541 67 299 9.0 17.0 0.00 0.46 0.29 77 1012.5
20260831124541 68 283 9.0 16.0 0.00 0.46 0.29 74 1012.3
20260831123542 67 265 8.0 17.0 0.00 0.46 0.29 75 1012.1
20260831122545 68 255 7.0 16.0 0.00 0.46 0.29 76 1012.1
20260831121541 70 244 7.0 15.0 0.00 0.46 0.29 72 1011.9
20260831120540 69 258 9.0 19.0 0.00 0.46 0.29 72 1011.8
20260831115703 67 288 8.0 19.0 0.02 0.46 0.29 73 1011.7
20260831115542 68 255 8.0 18.0 0.00 0.46 0.29 73 1011.7
20260831115521 68 283 9.0 20.0 0.02 0.46 0.29 74 1011.6
20260831112722 65 170 7.0 19.0 0.02 0.46 0.29 79 1011.2
20260831112543 67 236 7.0 21.0 0.02 0.46 0.29 74 1011.4
20260831110533 65 234 7.0 15.0 0.02 0.46 0.29 85 1011.0
20260831105536 65 294 7.0 20.0 0.02 0.46 0.29 83 1011.1
20260831104532 67 248 7.0 17.0 0.00 0.44 0.28 80 1010.7
20260831103532 67 127 7.0 15.0 0.00 0.44 0.28 80 1010.6
20260831102531 67 242 8.0 21.0 0.00 0.44 0.28 82 1010.6
20260831101532 66 206 7.0 20.0 0.00 0.44 0.28 85 1010.4
20260831100535 65 257 9.0 21.0 0.00 0.44 0.28 88 1010.5
20260831095543 64 238 9.0 27.0 0.00 0.44 0.28 89 1010.6
20260831095525 63 183 9.0 21.0 0.00 0.44 0.28 89 1010.2
20260831093534 63 184 6.0 16.0 0.00 0.44 0.28 89 1010.2
20260831092537 64 189 9.0 29.0 0.00 0.44 0.28 88 1010.2
20260831091535 64 267 7.0 21.0 0.00 0.44 0.28 90 1010.0
20260831090534 64 193 6.0 14.0 0.00 0.44 0.28 92 1010.2
20260831085530 63 191 6.0 16.0 0.02 0.44 0.28 93 1009.9
20260831084530 62 189 5.0 13.0 0.04 0.44 0.28 94 1010.0
20260831083531 61 215 4.0 11.0 0.06 0.44 0.28 95 1010.0
20260831082529 60 140 4.0 12.0 0.09 0.44 0.28 95 1009.9
20260831081531 60 231 4.0 10.0 0.17 0.44 0.28 95 1009.7
20260831081428 59 196 6.0 14.0 0.18 0.44 0.28 95 1009.5
20260831075531 59 195 5.0 18.0 0.23 0.43 0.26 94 1009.6
20260831074538 60 205 3.0 11.0 0.21 0.40 0.23 95 1009.7
20260831074516 60 140 4.0 14.0 0.19 0.38 0.21 95 1009.7
20260831073423 60 205 5.0 14.0 0.17 0.35 0.19 94 1009.5
20260831071537 60 186 4.0 9.0 0.09 0.28 0.11 94 1009.5
20260831070537 60 162 6.0 15.0 0.08 0.26 0.09 93 1009.5
20260831065531 60 154 6.0 18.0 0.02 0.20 0.03 93 1009.5
20260831064531 60 171 6.0 18.0 0.01 0.19 0.02 93 1009.4
20260831063535 60 203 6.0 16.0 0.02 0.19 0.02 93 1009.2
20260831062529 60 113 7.0 16.0 0.02 0.19 0.02 93 1009.2
20260831061528 60 137 6.0 14.0 0.02 0.18 0.02 92 1009.2
20260831060533 60 242 8.0 18.0 0.02 0.18 0.02 92 1009.1
20260831055534 60 142 7.0 17.0 0.02 0.18 0.02 91 1008.9
20260831054540 61 219 7.0 18.0 0.02 0.18 0.01 90 1008.8
20260831053531 61 195 7.0 20.0 0.00 0.17 0.00 90 1008.5
20260831052527 61 238 8.0 18.0 0.00 0.17 0.00 89 1008.8
20260831051522 61 239 7.0 22.0 0.00 0.17 0.00 90 1008.9
20260831050525 61 175 6.0 14.0 0.00 0.17 0.00 90 1008.8
20260831045524 61 177 7.0 15.0 0.00 0.17 0.00 89 1008.3
20260831045515 61 221 6.0 15.0 0.00 0.17 0.00 89 1008.5
20260831043522 61 180 5.0 15.0 0.00 0.17 0.00 89 1008.3
20260831042638 61 195 6.0 15.0 0.00 0.17 0.00 89 1008.6
20260831042528 61 170 7.0 17.0 0.00 0.17 0.00 89 1008.5
20260831040517 61 180 7.0 19.0 0.00 0.17 0.00 89 1008.5
20260831035515 61 165 7.0 19.0 0.00 0.17 0.00 90 1008.7
20260831034519 61 148 6.0 14.0 0.00 0.17 0.00 90 1008.6
20260831033517 61 216 6.0 12.0 0.00 0.17 0.00 91 1008.7
20260831032556 61 204 4.0 11.0 0.00 0.17 0.00 91 1008.7
20260831032517 61 243 5.0 14.0 0.00 0.17 0.00 91 1008.7